• en Belgique
  • Liste des pays
  • À 7 jours
  • Température de l'eau
  • Carte satellitaire
  • Carte météo
  • Widgets météo
  • user-avatar
    Se connecter

    Météo par heure à Quito

    Ce jour, 23 Août, Mercredi

    Heure Température Précipitation Vent Pression Humidité
    00:00 +16°C° 0 mm 1 m/s 622 mmHg 26%
    01:00 +15°C° 0 mm 1 m/s 622 mmHg 27%
    02:00 +15°C° 0 mm 1 m/s 621 mmHg 29%
    03:00 +14°C° 0 mm 1 m/s 621 mmHg 30%
    04:00 +13°C° 0 mm 1 m/s 621 mmHg 32%
    05:00 +14°C° 0 mm 1 m/s 621 mmHg 32%
    06:00 +15°C° 0 mm 1 m/s 622 mmHg 31%
    07:00 +15°C° 0 mm 1 m/s 622 mmHg 31%
    08:00 +19°C° 0 mm 2 m/s 624 mmHg 26%
    09:00 +23°C° 0 mm 2 m/s 625 mmHg 21%
    10:00 +27°C° 0 mm 3 m/s 626 mmHg 15%
    11:00 +28°C° 0 mm 3 m/s 625 mmHg 13%
    12:00 +30°C° 0 mm 3 m/s 625 mmHg 11%
    13:00 +31°C° 0 mm 2 m/s 625 mmHg 9%
    14:00 +31°C° 0 mm 2 m/s 624 mmHg 9%
    15:00 +31°C° 0 mm 2 m/s 624 mmHg 9%
    16:00 +31°C° 0 mm 2 m/s 623 mmHg 9%
    17:00 +28°C° 0 mm 1 m/s 623 mmHg 12%
    18:00 +25°C° 0 mm 1 m/s 622 mmHg 14%
    19:00 +22°C° 0 mm 1 m/s 622 mmHg 16%
    20:00 +22°C° 0 mm 1 m/s 622 mmHg 16%
    21:00 +21°C° 0 mm 1 m/s 622 mmHg 17%
    22:00 +20°C° 0 mm 1 m/s 622 mmHg 17%
    23:00 +20°C° 0 mm 1 m/s 622 mmHg 18%

    Demain, 24 Août, Jeudi

    Heure Température Précipitation Vent Pression Humidité
    00:00 +19°C° 0 mm 1 m/s 622 mmHg 19%
    01:00 +18°C° 0 mm 1 m/s 622 mmHg 20%
    02:00 +16°C° 0 mm 1 m/s 621 mmHg 21%
    03:00 +16°C° 0 mm 1 m/s 621 mmHg 23%
    04:00 +15°C° 0 mm 1 m/s 621 mmHg 24%
    05:00 +15°C° 0 mm 1 m/s 621 mmHg 24%
    06:00 +16°C° 0 mm 1 m/s 622 mmHg 24%
    07:00 +16°C° 0 mm 2 m/s 622 mmHg 24%
    08:00 +20°C° 0 mm 2 m/s 624 mmHg 21%
    09:00 +25°C° 0 mm 2 m/s 625 mmHg 17%
    10:00 +29°C° 0 mm 2 m/s 626 mmHg 13%
    11:00 +30°C° 0 mm 2 m/s 625 mmHg 12%
    12:00 +31°C° 0 mm 2 m/s 625 mmHg 11%
    13:00 +32°C° 0 mm 2 m/s 625 mmHg 10%
    14:00 +32°C° 0 mm 2 m/s 624 mmHg 10%
    15:00 +32°C° 0 mm 2 m/s 623 mmHg 10%
    16:00 +32°C° 0 mm 2 m/s 623 mmHg 10%
    17:00 +29°C° 0 mm 2 m/s 622 mmHg 12%
    18:00 +26°C° 0 mm 1 m/s 622 mmHg 14%
    19:00 +23°C° 0 mm 1 m/s 622 mmHg 16%
    20:00 +22°C° 0 mm 1 m/s 622 mmHg 17%
    21:00 +22°C° 0 mm 1 m/s 622 mmHg 17%
    22:00 +21°C° 0 mm 1 m/s 622 mmHg 17%
    23:00 +20°C° 0 mm 1 m/s 622 mmHg 18%

    Après-demain, 25 Août, Vendredi

    Heure Température Précipitation Vent Pression Humidité
    00:00 +20°C° 0 mm 1 m/s 622 mmHg 19%
    01:00 +19°C° 0 mm 1 m/s 621 mmHg 20%
    02:00 +18°C° 0 mm 1 m/s 621 mmHg 21%
    03:00 +16°C° 0 mm 1 m/s 621 mmHg 23%
    04:00 +15°C° 0 mm 1 m/s 620 mmHg 25%
    05:00 +16°C° 0 mm 1 m/s 621 mmHg 26%
    06:00 +16°C° 0 mm 1 m/s 622 mmHg 27%
    07:00 +16°C° 0 mm 1 m/s 622 mmHg 28%
    08:00 +20°C° 0 mm 2 m/s 623 mmHg 23%
    09:00 +25°C° 0 mm 2 m/s 624 mmHg 18%
    10:00 +28°C° 0 mm 2 m/s 625 mmHg 13%
    11:00 +30°C° 0 mm 2 m/s 625 mmHg 12%
    12:00 +32°C° 0 mm 2 m/s 624 mmHg 10%
    13:00 +34°C° 0 mm 2 m/s 624 mmHg 9%
    14:00 +34°C° 0 mm 2 m/s 623 mmHg 9%
    15:00 +32°C° 0 mm 2 m/s 623 mmHg 9%
    16:00 +32°C° 0 mm 2 m/s 622 mmHg 9%
    17:00 +29°C° 0 mm 2 m/s 622 mmHg 11%
    18:00 +26°C° 0 mm 1 m/s 621 mmHg 13%
    19:00 +24°C° 0 mm 1 m/s 621 mmHg 15%
    20:00 +23°C° 0 mm 1 m/s 621 mmHg 15%
    21:00 +22°C° 0 mm 1 m/s 621 mmHg 16%
    22:00 +22°C° 0 mm 1 m/s 622 mmHg 16%
    23:00 +21°C° 0 mm 1 m/s 621 mmHg 17%

    26 Août, Samedi

    Heure Température Précipitation Vent Pression Humidité
    00:00 +20°C° 0 mm 1 m/s 621 mmHg 18%
    01:00 +19°C° 0 mm 2 m/s 621 mmHg 18%
    02:00 +19°C° 0 mm 1 m/s 621 mmHg 19%
    03:00 +18°C° 0 mm 1 m/s 620 mmHg 20%
    04:00 +16°C° 0 mm 1 m/s 620 mmHg 20%
    05:00 +16°C° 0 mm 1 m/s 621 mmHg 20%
    06:00 +16°C° 0 mm 1 m/s 621 mmHg 21%
    07:00 +16°C° 0 mm 1 m/s 621 mmHg 21%
    08:00 +20°C° 0 mm 2 m/s 623 mmHg 17%
    09:00 +25°C° 0 mm 3 m/s 624 mmHg 14%
    10:00 +29°C° 0 mm 3 m/s 625 mmHg 10%
    11:00 +31°C° 0 mm 3 m/s 624 mmHg 9%
    12:00 +33°C° 0 mm 3 m/s 624 mmHg 8%
    13:00 +35°C° 0 mm 3 m/s 623 mmHg 8%
    14:00 +34°C° 0 mm 3 m/s 623 mmHg 8%
    15:00 +34°C° 0 mm 2 m/s 623 mmHg 8%
    16:00 +34°C° 0 mm 2 m/s 622 mmHg 8%
    17:00 +30°C° 0 mm 2 m/s 622 mmHg 10%
    18:00 +27°C° 0 mm 1 m/s 621 mmHg 11%
    19:00 +24°C° 0 mm 1 m/s 621 mmHg 13%
    20:00 +23°C° 0 mm 1 m/s 621 mmHg 14%
    21:00 +22°C° 0 mm 1 m/s 621 mmHg 14%
    22:00 +22°C° 0 mm 1 m/s 621 mmHg 15%
    23:00 +21°C° 0 mm 1 m/s 621 mmHg 16%

    27 Août, Dimanche

    Heure Température Précipitation Vent Pression Humidité
    00:00 +20°C° 0 mm 1 m/s 621 mmHg 17%
    01:00 +19°C° 0 mm 1 m/s 620 mmHg 19%
    02:00 +18°C° 0 mm 1 m/s 620 mmHg 21%
    03:00 +16°C° 0 mm 1 m/s 620 mmHg 23%
    04:00 +16°C° 0 mm 1 m/s 620 mmHg 25%
    05:00 +16°C° 0 mm 1 m/s 620 mmHg 24%
    06:00 +16°C° 0 mm 2 m/s 621 mmHg 23%
    07:00 +17°C° 0 mm 2 m/s 621 mmHg 22%
    08:00 +20°C° 0 mm 2 m/s 623 mmHg 18%
    09:00 +25°C° 0 mm 2 m/s 624 mmHg 14%
    10:00 +29°C° 0 mm 2 m/s 625 mmHg 10%
    11:00 +31°C° 0 mm 3 m/s 625 mmHg 9%
    12:00 +33°C° 0 mm 3 m/s 624 mmHg 9%
    13:00 +35°C° 0 mm 3 m/s 624 mmHg 9%
    14:00 +34°C° 0 mm 3 m/s 623 mmHg 9%
    15:00 +34°C° 0 mm 3 m/s 623 mmHg 9%
    16:00 +34°C° 0 mm 2 m/s 623 mmHg 9%
    17:00 +30°C° 0 mm 2 m/s 622 mmHg 12%
    18:00 +27°C° 0 mm 2 m/s 622 mmHg 14%
    19:00 +24°C° 0 mm 1 m/s 621 mmHg 16%
    20:00 +23°C° 0 mm 1 m/s 621 mmHg 17%
    21:00 +22°C° 0 mm 1 m/s 622 mmHg 18%
    22:00 +22°C° 0 mm 1 m/s 622 mmHg 19%
    23:00 +21°C° 0 mm 1 m/s 621 mmHg 21%

    28 Août, Lundi

    Heure Température Précipitation Vent Pression Humidité
    00:00 +20°C° 0 mm 1 m/s 621 mmHg 23%
    01:00 +19°C° 0 mm 1 m/s 621 mmHg 25%
    02:00 +19°C° 0 mm 1 m/s 621 mmHg 30%
    03:00 +18°C° 0 mm 1 m/s 621 mmHg 36%
    04:00 +16°C° 0 mm 1 m/s 621 mmHg 41%
    05:00 +18°C° 0 mm 1 m/s 621 mmHg 41%
    06:00 +18°C° 0 mm 1 m/s 622 mmHg 42%
    07:00 +19°C° 0 mm 1 m/s 622 mmHg 42%
    08:00 +24°C° 0 mm 1 m/s 624 mmHg 34%
    09:00 +28°C° 0 mm 1 m/s 625 mmHg 26%
    10:00 +32°C° 0 mm 1 m/s 626 mmHg 18%
    11:00 +34°C° 0 mm 2 m/s 625 mmHg 16%
    12:00 +35°C° 0 mm 3 m/s 625 mmHg 15%
    13:00 +35°C° 0 mm 4 m/s 624 mmHg 14%
    14:00 +35°C° 0 mm 3 m/s 624 mmHg 14%
    15:00 +35°C° 0 mm 3 m/s 623 mmHg 14%
    16:00 +35°C° 0 mm 3 m/s 623 mmHg 14%
    17:00 +31°C° 0 mm 2 m/s 622 mmHg 17%
    18:00 +29°C° 0 mm 2 m/s 622 mmHg 20%
    19:00 +26°C° 0 mm 1 m/s 622 mmHg 23%
    20:00 +26°C° 0 mm 1 m/s 622 mmHg 24%
    21:00 +25°C° 0 mm 1 m/s 622 mmHg 25%
    22:00 +25°C° 0 mm 1 m/s 623 mmHg 26%
    23:00 +25°C° 0 mm 1 m/s 623 mmHg 29%
    Voir plus